Preview of NWS' New Version of Forecast
This preview is not operational and should not be used for support decisions.

Regional Weather Roundup (RWR)

Issued by National Weather Service (NWS)

                            
000
ASCA42 TJSJ 181410
RWRPR 
PUERTO RICO/U.S. VIRGIN ISLANDS HOURLY WEATHER ROUNDUP
NATIONAL WEATHER SERVICE SAN JUAN PR
1000 AM AST THU APR 18 2019

PRZ001>002-007>008-010-181500-
PUERTO RICO
  
CITY           SKY/WX    TMP DP  RH WIND       PRES   REMARKS
SAN JUAN LMM   MOSUNNY   82  70  65 E17       30.05S                  
AGUADILLA      MOSUNNY   82  70  65 E14G22    30.07R                  
CEIBA          MOSUNNY   86  70  58 MISG      30.07S HX  90           
$$

VIZ001>002-181500-
U.S. VIRGIN ISLANDS
  
CITY           SKY/WX    TMP DP  RH WIND       PRES   REMARKS
CHARLOTTE AMA  MOSUNNY   82  68  61 SE13      30.05R                  
CHRISTIANSTED  MOSUNNY   86  66  51 E17       30.06R                  
$$

HOURLY WEATHER ROUNDUP FOR THE NEWS MEDIA
  
CITY           SKY/WX    TMP DP  RH WIND       PRES   REMARKS
ORLANDO        FAIR      78  63  59 SE14      30.02S                  
NEW YORK       CLOUDY    51  44  77 E20G29    30.12F                  
NEWARK         CLOUDY    53  43  68 SE9       30.11F                  
CHICAGO        CLOUDY    53  48  83 W6        29.56R                  
HARTFORD       CLOUDY    46  39  76 SE13      30.24F                  
DALLAS         PTSUNNY   64  60  87 E5        29.73F                  
PHILADELPHIA   PTSUNNY   63  54  72 E8        30.04F                  
LOS ANGELES    MOCLDY    60  53  77 VRB5      30.10R                  
WASHINGTON DC  CLOUDY    58  51  78 SE5       30.01F